Location: Kumla
(59.1265°N, 15.1401°E)
Time: 17:01:54
(UTC+01:00)

A-11 Canister half - Pass Details

Date: 06 December 2023
Orbit: 1512 x 1687 km, 47.2° (Epoch: 25 February)

Event Time Altitude Azimuth Distance (km) Brightness Sun altitude
Rises 00:31:31 0° 220° (SW) 4,741 - -52.6°
Reaches altitude 10° 00:34:58 10° 211° (SSW) 3,784 - -52.4°
Maximum altitude 00:43:03 32° 153° (SSE) 2,522 - -52.1°
Exits shadow 00:51:17 10° 96° (E) 3,880 11.2 -51.7°
Drops below altitude 10° 00:51:23 10° 96° (E) 3,907 11.2 -51.7°
Sets 00:55:00 0° 87° (E) 4,915 11.9 -51.5°
